Sacramento, CA

3:49 PM PST on February 12, 2016 (GMT -0800)
Sacramento Executive

Weather History for KSAC - April, 2014

Change the Weather History Date:

Thursday, April 24, 2014

  Actual Average Record
Temperature  
Mean Temperature 62 °F -  
Max Temperature 73 °F 74 °F 90 °F (2013)
Min Temperature 50 °F 47 °F 36 °F (1964)
Degree Days  
Heating Degree Days 3    
Cooling Degree Days 0    
Growing Degree Days 11 (Base 50)    
Moisture  
Dew Point 50 °F    
Average Humidity 68    
Maximum Humidity 89    
Minimum Humidity 47    
Precipitation  
Precipitation 0.00 in 0.04 in 0.46 in (1972)
Month to date precipitation 1.38 0.98  
Year to date precipitation 7.44 10.84  
Since 1 July precipitation 9.34  
Sea Level Pressure  
Sea Level Pressure 30.01 in    
Wind  
Wind Speed 4 mph (SSW)    
Max Wind Speed 14 mph    
Max Gust Speed 17 mph    
Visibility 10 miles    
Events      
T = Trace of Precipitation, MM = Missing Value Source: NWS Daily Summary

Daily Weather History Graph

Daily Weather History Graph

Search for Another Location

Airport or City:

Trip Planner

Search our weather history database for the weather conditions in past years. The results will help you decide how hot, cold, wet, or windy it might be!

Date:

Astronomy

Apr. 24, 2014 Rise Set
Actual Time 6:17 AM PDT 7:51 PM PDT
Civil Twilight 5:49 AM PDT 8:19 PM PDT
Nautical Twilight 5:15 AM PDT 8:53 PM PDT
Astronomical Twilight 4:40 AM PDT 9:29 PM PDT
Moon 3:28 AM PDT (4/24) 3:16 PM PDT (4/24)
Length of Visible Light 14h 29m
Length of Day
13h 33m
Waning Crescent, 23% of the Moon is Illuminated
Apr 24
Waning Crescent
Apr 28
New
May 6
First Quarter
May 14
Full
May 21
Last Quarter

Hourly Weather History & Observations

Time (PDT) Temp. Dew Point Humidity Pressure Visibility Wind Dir Wind Speed Gust Speed Precip Events Conditions
12:53 AM 53.1 °F 48.0 °F 83% 30.05 in 10.0 mi SSW 3.5 mph - N/A   Clear
1:53 AM 53.1 °F 48.0 °F 83% 30.05 in 10.0 mi Calm Calm - N/A   Clear
2:53 AM 51.1 °F 46.9 °F 86% 30.04 in 10.0 mi Calm Calm - N/A   Clear
3:53 AM 50.0 °F 46.0 °F 86% 30.04 in 10.0 mi ESE 3.5 mph - N/A   Clear
4:53 AM 51.1 °F 48.0 °F 89% 30.04 in 10.0 mi Calm Calm - N/A   Clear
5:53 AM 52.0 °F 48.0 °F 86% 30.04 in 10.0 mi SSE 5.8 mph - N/A   Clear
6:53 AM 53.1 °F 48.9 °F 86% 30.05 in 10.0 mi South 3.5 mph - N/A   Clear
7:53 AM 54.0 °F 50.0 °F 86% 30.06 in 10.0 mi SW 3.5 mph - N/A   Clear
8:53 AM 57.0 °F 50.0 °F 77% 30.07 in 10.0 mi SSE 3.5 mph - N/A   Clear
9:53 AM 63.0 °F 50.0 °F 63% 30.08 in 10.0 mi South 3.5 mph - N/A   Clear
10:53 AM 64.0 °F 50.0 °F 60% 30.08 in 10.0 mi South 4.6 mph - N/A   Clear
11:53 AM 66.0 °F 48.9 °F 54% 30.07 in 10.0 mi South 3.5 mph - N/A   Clear
12:53 PM 68.0 °F 48.9 °F 50% 30.04 in 10.0 mi SSW 6.9 mph - N/A   Clear
1:53 PM 71.1 °F 50.0 °F 47% 30.03 in 10.0 mi SSW 8.1 mph - N/A   Clear
2:53 PM 71.1 °F 50.0 °F 47% 30.01 in 10.0 mi SSW 9.2 mph - N/A   Clear
3:53 PM 72.0 °F 50.0 °F 46% 29.97 in 10.0 mi South 8.1 mph - N/A   Clear
4:53 PM 70.0 °F 53.1 °F 55% 29.96 in 10.0 mi SW 10.4 mph - N/A   Partly Cloudy
5:53 PM 66.9 °F 53.1 °F 61% 29.95 in 10.0 mi WSW 15.0 mph 24.2 mph N/A   Clear
6:53 PM 64.0 °F 53.1 °F 67% 29.94 in 10.0 mi SW 12.7 mph 19.6 mph N/A   Mostly Cloudy
7:53 PM 62.1 °F 53.1 °F 72% 29.94 in 10.0 mi SW 9.2 mph 18.4 mph N/A   Mostly Cloudy
8:53 PM 62.1 °F 52.0 °F 70% 29.95 in 10.0 mi SSW 4.6 mph - N/A   Overcast
9:53 PM 60.1 °F 53.1 °F 78% 29.96 in 10.0 mi Variable 5.8 mph - N/A   Overcast
10:53 PM 59.0 °F 54.0 °F 83% 29.96 in 10.0 mi SSW 5.8 mph - 0.00 in   Overcast
11:53 PM 57.9 °F 54.0 °F 87% 29.96 in 10.0 mi Variable 5.8 mph - 0.00 in   Overcast